Regional Weather Roundup
Issued by NWS

Home | Current Version | Previous Version | Graphics & Text | Print | Product List | Glossary On
Versions: 1 2 3 4 5 6 7 8 9 10 11 12 13 14 15 16 17 18 19 20 21 22 23 24 25 26 27
000
ASUS45 KSLC 190710
RWRUT

UTAH REGIONAL WEATHER ROUNDUP
NATIONAL WEATHER SERVICE SALT LAKE CITY UT
1200 AM MST SUN FEB 19 2017

UTZ001>011-023>025-190800-

NORTHERN UTAH

CITY           SKY/WX    TMP DP  RH WIND       PRES   REMARKS
BRIGHAM CITY     N/A     45  38  75 N3        29.60F
HILL AFB       CLOUDY    47  35  62 S16       29.60S
LOGAN          CLOUDY    40  36  86 CALM      29.60F
OGDEN          CLOUDY    46  36  68 S10       29.59F
SALT LAKE CITY CLOUDY    49  34  56 S15       29.59F
TOOELE VALLEY  CLOUDY    46  37  71 SW15G22   29.59S
WENDOVER       CLOUDY    43  37  81 NE5       29.58R
HEBER CITY     CLOUDY    39  30  70 CALM      29.66R
WEST JORDAN    CLOUDY    49  43  78 S16       29.62S

$$

UTZ011>015-024>027-190800-

CENTRAL/NORTHEAST UTAH

CITY           SKY/WX    TMP DP  RH WIND       PRES   REMARKS
PROVO AIRPORT  CLOUDY    47  35  63 SE15      29.64S
MOAB/CANYONLAN CLOUDY    41  40  96 N6        29.71S
DELTA          CLOUDY    41  37  87 SE6       29.65R
PRICE          MOCLDY    35  35 100 CALM      29.72S
RICHFIELD      CLOUDY    41  36  81 CALM      29.69R
ROOSEVELT      CLOUDY    36  34  93 W6        29.76R WCI  31
VERNAL         CLOUDY    33  32  96 CALM      29.73F

$$

UTZ013>016-019>022-027-190800-

SOUTHERN UTAH

CITY           SKY/WX    TMP DP  RH WIND       PRES   REMARKS
BRYCE CANYON   CLOUDY    34  32  92 CALM      29.74S
CEDAR CITY     CLOUDY    41  35  79 S8        29.67S
MILFORD        CLOUDY    43  37  79 SW12      29.66R
ST GEORGE      LGT RAIN  48  46  93 S5        29.68R
HANKSVILLE     CLOUDY    41  39  93 CALM      29.76R
KANAB          CLOUDY    43  41  93 N3        29.73S
BLANDING       CLOUDY    44  34  67 E6        29.81S

$$

REGIONAL REPORTS     COLORADO/ARIZONA

CITY           SKY/WX    TMP DP  RH WIND       PRES   REMARKS
CRAIG, CO      CLOUDY    26  23  88 W3        29.75F
GRAND JUNCTION CLEAR     38  37  97 NE5       29.72S WCI  34
RIFLE, CO      CLOUDY    33  30  88 SE3       29.74S
MONTROSE, CO   CLOUDY    34  31  88 SE6       29.78R WCI  29
CORTEZ, CO     CLOUDY    47  29  49 SE10      29.76S
COLORADO CITY  LGT RAIN  46  41  81 SE9       29.72R
PAGE, AZ       MOCLDY    44  38  79 W3        29.68S
GRAND CANYON   CLOUDY    36  36 100 CALM      29.73S FOG
KINGMAN, AZ    MOCLDY    46  42  86 NW5       29.68R
FLAGSTAFF, AZ  LGT SNOW  32  31  96 SW9       29.74S FOG     WCI  24

$$

REGIONAL REPORTS    NEVADA/IDAHO/WYOMING

CITY           SKY/WX    TMP DP  RH WIND       PRES   REMARKS
LAS VEGAS, NV  MOCLDY    51  48  89 CALM      29.65R
ELY, NY        CLOUDY    36  33  89 S13       29.63R WCI  27
ELKO, NV       CLOUDY    39  35  86 CALM      29.57R
POCATELLO, ID  CLOUDY    46  36  68 S25G33    29.52F
BURLEY, ID     RAIN      42  38  85 W7        29.53R FOG
FORT BRIDGER,    N/A     31  31 100 W5        29.69F WCI  27
EVANSTON, WY   CLOUDY    37  27  67 SW3       29.66F
ROCK SPRINGS,  CLOUDY    38  29  70 S9        29.68S WCI  31
KEMMERER, WY     N/A     32  30  93 CALM      29.67S

$$




USA.gov is the U.S. government's official web portal to all federal, state and local government web resources and services.